KD9IXX-13 Weather Reports


Display with metric or nautical units.
time (UTC)temp
F
wind
direction
speed
MPH
gust
MPH
rain 1hr
in
rain 24hr
in
rain mn
in
humidity
%
barometer
mb
20260509113501 50 241 2.0 5.0 0.00 0.00 0.00 99 1006.1
20260509113003 50 178 6.0 9.0 0.00 0.00 0.00 99 1006.2
20260509112503 50 212 2.0 6.0 0.00 0.00 0.00 99 1006.2
20260509112002 50 233 3.0 4.0 0.00 0.00 0.00 99 1006.1
20260509111502 50 213 4.0 6.0 0.00 0.00 0.00 99 1006.3
20260509110502 50 248 4.0 5.0 0.00 0.00 0.00 99 1006.2
20260509110002 50 232 3.0 5.0 0.00 0.00 0.00 99 1006.5
20260509105501 50 233 2.0 5.0 0.00 0.00 0.00 99 1006.4
20260509105002 50 274 2.0 3.0 0.00 0.00 0.00 99 1006.5
20260509104502 50 270 2.0 3.0 0.00 0.00 0.00 99 1006.4
20260509104003 49 261 2.0 5.0 0.00 0.00 0.00 99 1006.3
20260509103501 49 261 2.0 5.0 0.00 0.00 0.00 99 1006.2
20260509103002 49 223 3.0 5.0 0.00 0.00 0.00 99 1006.6
20260509102502 49 271 2.0 4.0 0.00 0.00 0.00 99 1006.6
20260509102002 49 236 2.0 4.0 0.00 0.00 0.00 99 1006.4
20260509101502 49 252 0.0 4.0 0.00 0.00 0.00 99 1006.6
20260509101002 49 180 3.0 7.0 0.00 0.00 0.00 99 1006.7
20260509100502 49 275 1.0 4.0 0.00 0.00 0.00 99 1006.5
20260509100001 49 223 1.0 5.0 0.00 0.00 0.00 99 1006.5
20260509095502 48 194 3.0 5.0 0.00 0.00 0.00 99 1006.9
20260509095002 48 193 4.0 5.0 0.00 0.00 0.00 99 1006.8
20260509094003 48 261 3.0 5.0 0.00 0.00 0.00 99 1006.8
20260509093502 48 212 4.0 5.0 0.00 0.00 0.00 99 1006.9
20260509093002 48 235 1.0 5.0 0.00 0.00 0.00 99 1007.1
20260509092502 49 215 3.0 5.0 0.00 0.00 0.00 99 1007.0
20260509092002 49 240 2.0 4.0 0.00 0.00 0.00 99 1007.1
20260509091502 49 204 1.0 3.0 0.00 0.00 0.00 99 1006.9
20260509091002 49 204 2.0 4.0 0.00 0.00 0.00 99 1007.1
20260509090002 49 211 1.0 2.0 0.00 0.00 0.00 99 1007.0
20260509085502 49 268 0.0 2.0 0.00 0.00 0.00 99 1007.0
20260509085002 49 259 1.0 3.0 0.00 0.00 0.00 99 1007.2
20260509084502 49 270 1.0 3.0 0.00 0.00 0.00 99 1007.1
20260509084002 49 277 0.0 2.0 0.00 0.00 0.00 99 1006.8
20260509083502 49 269 0.0 2.0 0.00 0.00 0.00 99 1006.7
20260509083002 49 276 1.0 3.0 0.00 0.00 0.00 99 1007.1
20260509082502 49 251 1.0 2.0 0.00 0.00 0.00 99 1007.0
20260509082002 49 207 2.0 3.0 0.00 0.00 0.00 99 1006.8
20260509081502 49 205 1.0 2.0 0.00 0.00 0.00 99 1006.8
20260509080002 49 274 0.0 3.0 0.00 0.00 0.00 99 1007.0
20260509075502 49 259 1.0 2.0 0.00 0.00 0.00 99 1006.8
20260509075001 49 266 0.0 3.0 0.00 0.00 0.00 99 1006.8
20260509074002 49 219 1.0 2.0 0.00 0.00 0.00 99 1006.8
20260509073002 49 272 0.0 0.0 0.00 0.00 0.00 99 1007.2
20260509072502 49 279 0.0 2.0 0.00 0.00 0.00 99 1007.2
20260509072002 49 278 0.0 0.0 0.00 0.00 0.00 99 1007.3
20260509071502 49 269 0.0 0.0 0.00 0.00 0.00 99 1007.3
20260509071002 50 279 0.0 0.0 0.00 0.00 0.00 99 1007.3
20260509070502 50 277 0.0 0.0 0.00 0.00 0.00 99 1007.3
20260509070002 50 279 0.0 0.0 0.00 0.00 0.00 99 1007.3
20260509065502 50 278 1.0 3.0 0.00 0.00 0.00 99 1007.5
20260509065002 50 279 0.0 2.0 0.00 0.00 0.00 99 1007.4
20260509064501 50 278 0.0 2.0 0.00 0.00 0.00 99 1007.7
20260509064002 50 279 0.0 2.0 0.00 0.00 0.00 99 1007.3
20260509063502 50 277 0.0 0.0 0.00 0.00 0.00 99 1007.6
20260509063002 50 270 0.0 2.0 0.00 0.00 0.00 99 1007.6
20260509062502 51 269 1.0 2.0 0.00 0.00 0.00 99 1007.5
20260509062002 51 270 1.0 3.0 0.00 0.00 0.00 99 1007.7
20260509061502 51 274 0.0 3.0 0.00 0.00 0.00 98 1007.7
20260509061002 51 280 0.0 2.0 0.00 0.00 0.00 98 1008.0
20260509060502 51 274 2.0 3.0 0.00 0.00 0.00 98 1007.8
20260509060002 51 269 0.0 2.0 0.00 0.00 0.00 98 1007.9
20260509055502 51 224 2.0 3.0 0.00 0.00 0.00 98 1008.2
20260509055002 51 267 1.0 5.0 0.00 0.00 0.00 98 1007.9
20260509054502 52 278 1.0 2.0 0.00 0.00 0.00 98 1008.2
20260509054002 52 270 2.0 3.0 0.00 0.00 0.00 98 1007.8
20260509053502 52 274 1.0 5.0 0.00 0.00 0.00 98 1007.8
20260509053002 52 266 2.0 3.0 0.00 0.00 0.00 98 1008.1
20260509052502 52 270 1.0 3.0 0.00 0.00 0.00 98 1008.1
20260509052002 52 277 1.0 2.0 0.00 0.00 0.00 97 1008.1
20260509051502 52 242 2.0 3.0 0.00 0.00 0.00 97 1008.1
20260509051001 52 269 2.0 3.0 0.00 0.00 0.00 97 1007.8
20260509050502 52 277 1.0 3.0 0.00 0.00 0.00 97 1008.2
20260509050002 53 242 2.0 3.0 0.00 0.00 0.01 96 1008.0
20260509045502 53 246 2.0 3.0 0.00 0.00 0.01 96 1008.1
20260509044502 53 277 2.0 3.0 0.00 0.00 0.01 95 1008.0
20260509044002 53 253 1.0 4.0 0.00 0.00 0.01 95 1008.2
20260509043502 53 277 3.0 5.0 0.00 0.00 0.01 95 1008.2
20260509042502 54 242 2.0 4.0 0.00 0.00 0.01 94 1008.1
20260509041502 54 284 3.0 5.0 0.00 0.00 0.01 93 1008.3
20260509041002 54 268 2.0 3.0 0.00 0.00 0.01 93 1008.3
20260509040502 54 231 2.0 3.0 0.00 0.00 0.01 93 1008.3
20260509040002 54 277 1.0 4.0 0.00 0.00 0.01 93 1008.5
20260509035502 54 263 2.0 3.0 0.00 0.00 0.01 92 1008.6
20260509034502 55 250 3.0 4.0 0.00 0.00 0.01 92 1008.3
20260509034001 55 256 2.0 4.0 0.00 0.00 0.01 91 1008.4
20260509033503 55 204 2.0 4.0 0.00 0.00 0.01 91 1008.4
20260509033002 55 203 3.0 4.0 0.00 0.00 0.01 90 1008.5
20260509032502 55 275 3.0 5.0 0.00 0.00 0.01 89 1008.3
20260509032002 55 246 4.0 6.0 0.00 0.00 0.01 88 1008.3
20260509031502 55 279 1.0 2.0 0.00 0.00 0.01 87 1008.5
20260509031002 55 263 2.0 3.0 0.00 0.00 0.01 86 1008.5
20260509030502 55 225 3.0 4.0 0.00 0.00 0.01 85 1008.4
20260509030002 55 203 2.0 4.0 0.00 0.00 0.01 85 1008.4
20260509025002 56 268 3.0 4.0 0.00 0.00 0.01 84 1008.7
20260509024502 56 267 2.0 4.0 0.00 0.00 0.01 83 1008.6
20260509024002 56 223 3.0 4.0 0.00 0.00 0.01 82 1008.7
20260509023502 56 213 2.0 4.0 0.00 0.00 0.01 82 1008.9
20260509023002 56 276 2.0 4.0 0.00 0.00 0.01 82 1008.6
20260509022502 57 244 3.0 4.0 0.00 0.00 0.01 82 1008.7
20260509022001 57 234 3.0 4.0 0.00 0.00 0.01 81 1008.6
20260509021502 57 252 2.0 3.0 0.00 0.00 0.01 81 1008.5
20260509021002 57 278 1.0 3.0 0.00 0.00 0.01 81 1008.5
20260509020502 57 279 1.0 5.0 0.00 0.00 0.01 81 1008.6
20260509020001 58 273 2.0 4.0 0.00 0.00 0.01 81 1008.4
20260509015502 58 267 2.0 4.0 0.00 0.00 0.01 81 1008.2
20260509015002 58 276 1.0 3.0 0.00 0.00 0.01 80 1008.3
20260509014002 58 255 2.0 3.0 0.00 0.00 0.01 79 1008.1
20260509013502 59 212 3.0 7.0 0.00 0.00 0.01 79 1007.9
20260509012502 59 265 2.0 4.0 0.00 0.00 0.01 78 1008.0
20260509012002 59 281 1.0 3.0 0.00 0.00 0.01 78 1007.8
20260509011502 59 227 1.0 7.0 0.00 0.00 0.01 78 1008.2
20260509011002 59 253 2.0 5.0 0.00 0.00 0.01 77 1008.1
20260509010002 60 235 4.0 6.0 0.00 0.00 0.01 74 1008.0
20260509005502 60 274 1.0 3.0 0.00 0.00 0.01 72 1008.1
20260509005002 60 239 3.0 4.0 0.00 0.00 0.01 71 1008.1
20260509004502 61 278 1.0 3.0 0.00 0.00 0.01 69 1007.7
20260509004002 61 265 2.0 3.0 0.00 0.00 0.01 68 1008.0
20260509003502 62 278 1.0 2.0 0.00 0.00 0.01 67 1008.0
20260509003002 62 278 1.0 4.0 0.00 0.00 0.01 65 1007.9
20260509002503 62 267 1.0 4.0 0.00 0.00 0.01 63 1007.8
20260509002002 62 257 2.0 3.0 0.00 0.00 0.01 63 1007.9
20260509001501 62 253 2.0 4.0 0.00 0.00 0.01 63 1008.1
20260509001002 63 280 0.0 3.0 0.00 0.00 0.01 64 1008.1
20260509000502 63 281 3.0 4.0 0.00 0.00 0.01 63 1008.0
20260509000002 64 276 1.0 3.0 0.00 0.00 0.01 64 1008.0
20260508235502 64 253 2.0 4.0 0.00 0.01 0.01 64 1008.0
20260508235002 64 263 2.0 4.0 0.00 0.01 0.01 65 1007.9
20260508234001 65 272 1.0 3.0 0.00 0.00 0.01 64 1007.9
20260508233502 64 255 3.0 5.0 0.00 0.00 0.01 65 1007.9
20260508233002 64 276 1.0 4.0 0.00 0.00 0.01 66 1007.9
20260508232002 65 275 1.0 3.0 0.00 0.00 0.01 64 1008.1
20260508231002 64 231 2.0 4.0 0.00 0.00 0.01 66 1008.1
20260508230502 64 263 1.0 4.0 0.00 0.00 0.01 64 1008.1
20260508230002 64 288 2.0 6.0 0.00 0.00 0.01 64 1008.1
20260508225502 66 242 3.0 5.0 0.00 0.00 0.01 65 1008.2
20260508225002 67 276 2.0 4.0 0.00 0.00 0.01 61 1008.3
20260508224501 67 243 4.0 6.0 0.00 0.00 0.01 58 1008.1
20260508224002 67 271 2.0 5.0 0.00 0.00 0.01 60 1008.3
20260508223002 66 232 3.0 4.0 0.00 0.00 0.01 62 1008.5
20260508222502 65 279 1.0 6.0 0.00 0.00 0.01 58 1008.3
20260508222002 66 304 4.0 7.0 0.00 0.00 0.01 63 1008.2
20260508221502 67 206 3.0 7.0 0.00 0.00 0.01 53 1008.1
20260508221002 67 274 3.0 5.0 0.00 0.00 0.01 62 1008.2
20260508220502 67 260 3.0 6.0 0.00 0.00 0.01 63 1008.3
20260508220002 65 258 2.0 4.0 0.00 0.00 0.01 62 1008.3
20260508215501 65 275 2.0 4.0 0.00 0.00 0.01 63 1008.3
20260508214502 65 285 4.0 6.0 0.00 0.00 0.01 59 1008.3
20260508214002 67 200 4.0 6.0 0.00 0.00 0.01 61 1008.1
20260508213502 65 220 2.0 3.0 0.00 0.00 0.01 63 1008.5
20260508213002 68 286 2.0 6.0 0.00 0.00 0.01 61 1008.3
20260508212502 67 272 1.0 5.0 0.00 0.00 0.01 61 1008.4
20260508212002 66 210 4.0 5.0 0.00 0.00 0.01 63 1008.5
20260508211501 64 188 5.0 7.0 0.00 0.00 0.01 64 1008.6
20260508211002 65 283 3.0 6.0 0.00 0.00 0.01 64 1008.7
20260508210502 66 296 5.0 9.0 0.00 0.00 0.01 62 1008.5
20260508210002 66 260 7.0 10.0 0.00 0.00 0.01 61 1008.8
20260508205502 66 249 3.0 5.0 0.00 0.00 0.01 60 1008.7
20260508205003 66 268 2.0 4.0 0.00 0.00 0.01 59 1008.7
20260508204501 67 284 2.0 5.0 0.00 0.00 0.01 61 1009.0
20260508204002 66 260 2.0 7.0 0.00 0.00 0.01 60 1008.9
20260508203502 66 284 1.0 3.0 0.00 0.00 0.01 60 1008.7
20260508203001 65 213 2.0 6.0 0.00 0.00 0.01 61 1009.0
20260508202502 65 218 2.0 4.0 0.00 0.00 0.01 62 1009.0
20260508202002 64 288 0.0 3.0 0.00 0.00 0.01 63 1009.3
20260508201002 65 251 2.0 4.0 0.00 0.00 0.01 64 1009.2
20260508200502 65 225 1.0 3.0 0.00 0.00 0.01 66 1009.4
20260508200001 65 238 2.0 6.0 0.00 0.00 0.01 63 1009.4
20260508195503 65 287 0.0 3.0 0.00 0.00 0.01 65 1009.8
20260508195002 66 162 4.0 6.0 0.00 0.00 0.01 61 1009.6
20260508194502 66 284 1.0 2.0 0.00 0.00 0.01 65 1009.6
20260508194002 65 265 2.0 4.0 0.00 0.00 0.01 60 1009.7
20260508193502 64 297 2.0 3.0 0.00 0.00 0.01 66 1010.0
20260508193002 65 285 2.0 3.0 0.00 0.00 0.01 65 1009.9
20260508192502 65 282 2.0 5.0 0.00 0.00 0.01 64 1009.9
20260508192002 65 268 1.0 2.0 0.00 0.00 0.01 64 1009.7
20260508191502 64 296 1.0 4.0 0.00 0.00 0.01 65 1010.1
20260508191002 65 259 3.0 4.0 0.00 0.00 0.01 62 1009.9
20260508190502 66 228 3.0 5.0 0.00 0.00 0.01 61 1010.1
20260508190002 65 249 2.0 6.0 0.00 0.00 0.01 65 1010.1
20260508185001 65 316 1.0 5.0 0.00 0.00 0.01 64 1010.0
20260508184002 66 181 3.0 5.0 0.00 0.00 0.01 64 1010.3
20260508183502 66 195 3.0 7.0 0.00 0.00 0.01 64 1010.5
20260508183002 65 277 2.0 3.0 0.00 0.00 0.01 63 1010.6
20260508182502 65 194 4.0 5.0 0.00 0.00 0.01 61 1010.7
20260508182003 65 246 3.0 4.0 0.00 0.00 0.01 62 1010.5
20260508181502 64 308 1.0 4.0 0.00 0.00 0.01 65 1010.7
20260508181002 64 119 2.0 5.0 0.00 0.00 0.01 62 1010.6
20260508180502 63 318 2.0 4.0 0.00 0.00 0.01 62 1010.7
20260508180001 63 168 4.0 5.0 0.00 0.00 0.01 65 1010.8
20260508175002 63 300 4.0 7.0 0.00 0.00 0.01 65 1010.8
20260508174502 64 267 1.0 5.0 0.00 0.00 0.01 66 1010.7
20260508174002 65 255 3.0 6.0 0.00 0.00 0.01 64 1011.0
20260508173502 66 46 3.0 4.0 0.00 0.00 0.01 67 1011.0
20260508173001 64 207 3.0 4.0 0.00 0.00 0.01 69 1011.1
20260508172502 63 224 2.0 3.0 0.00 0.00 0.01 68 1011.2
20260508172002 63 239 2.0 3.0 0.00 0.00 0.01 67 1011.3
20260508171502 63 194 3.0 6.0 0.00 0.00 0.01 67 1011.3
20260508171002 63 237 3.0 4.0 0.00 0.00 0.01 69 1011.5
20260508170502 63 249 1.0 5.0 0.00 0.00 0.01 72 1011.6
20260508170002 62 298 1.0 4.0 0.00 0.00 0.01 71 1011.7
20260508165502 61 198 3.0 4.0 0.00 0.00 0.01 72 1011.8
20260508165001 62 247 3.0 4.0 0.00 0.00 0.01 72 1011.7
20260508164502 61 286 2.0 4.0 0.00 0.00 0.01 74 1011.9
20260508164002 62 217 2.0 3.0 0.00 0.00 0.01 74 1012.1
20260508163501 62 235 2.0 3.0 0.00 0.00 0.01 72 1012.1
20260508163002 61 186 3.0 6.0 0.00 0.00 0.01 73 1012.2
20260508162502 61 268 2.0 3.0 0.00 0.00 0.01 73 1012.4
20260508162002 61 191 3.0 4.0 0.00 0.00 0.01 75 1012.3
20260508161503 61 277 2.0 3.0 0.00 0.00 0.01 74 1012.4
20260508161001 61 276 1.0 3.0 0.00 0.00 0.01 74 1012.4
20260508160502 61 259 2.0 5.0 0.00 0.00 0.01 74 1012.3
20260508160002 60 198 2.0 4.0 0.00 0.00 0.01 76 1012.4
20260508155502 60 257 3.0 6.0 0.00 0.00 0.01 78 1012.6
20260508155002 60 265 2.0 6.0 0.00 0.00 0.01 78 1012.4
20260508154502 60 261 1.0 3.0 0.00 0.00 0.01 78 1012.4
20260508154002 59 236 3.0 5.0 0.00 0.00 0.01 77 1012.7
20260508153502 60 261 4.0 5.0 0.00 0.00 0.01 77 1012.5
20260508153002 60 283 3.0 6.0 0.00 0.00 0.01 77 1012.6
20260508152502 60 217 3.0 5.0 0.00 0.00 0.01 78 1012.6
20260508152002 60 283 2.0 5.0 0.00 0.00 0.01 78 1012.5
20260508151502 60 194 2.0 5.0 0.00 0.00 0.01 77 1012.8
20260508151002 60 198 4.0 5.0 0.00 0.00 0.01 76 1012.6
20260508150003 61 229 2.0 3.0 0.00 0.00 0.01 76 1012.7
20260508145502 60 213 2.0 7.0 0.00 0.00 0.01 75 1012.9
20260508145002 60 200 3.0 5.0 0.00 0.00 0.01 76 1012.8
20260508144502 60 213 2.0 4.0 0.00 0.00 0.01 76 1012.8
20260508144002 60 200 3.0 6.0 0.00 0.00 0.01 79 1012.8
20260508143502 59 199 3.0 4.0 0.00 0.00 0.01 79 1012.8
20260508143002 58 271 3.0 6.0 0.00 0.00 0.01 81 1013.0
20260508142502 58 207 4.0 7.0 0.00 0.00 0.01 81 1013.0
20260508142001 58 264 2.0 3.0 0.00 0.00 0.01 83 1013.1
20260508141502 58 212 3.0 4.0 0.00 0.00 0.01 85 1012.9
20260508141002 57 225 2.0 5.0 0.00 0.00 0.01 85 1013.0
20260508140502 57 183 4.0 6.0 0.00 0.00 0.01 87 1013.0
20260508140003 56 227 4.0 5.0 0.00 0.00 0.01 88 1013.0
20260508135502 56 216 3.0 5.0 0.00 0.00 0.01 88 1012.9
20260508135002 55 289 2.0 4.0 0.00 0.00 0.01 91 1013.0
20260508134002 55 283 2.0 5.0 0.00 0.00 0.01 92 1012.8
20260508133501 55 203 5.0 7.0 0.00 0.00 0.01 92 1012.7
20260508133002 54 281 2.0 3.0 0.00 0.00 0.01 93 1012.9
20260508132502 54 213 2.0 3.0 0.00 0.00 0.01 93 1013.0
20260508132001 54 193 2.0 3.0 0.00 0.00 0.01 93 1013.0
20260508131502 54 275 2.0 5.0 0.00 0.00 0.01 92 1013.0
20260508131002 54 269 1.0 4.0 0.00 0.00 0.01 94 1012.9
20260508130502 52 257 3.0 3.0 0.00 0.00 0.01 95 1013.0
20260508130002 52 290 1.0 5.0 0.00 0.00 0.01 96 1013.0
20260508125502 52 265 2.0 3.0 0.00 0.00 0.01 97 1013.2
20260508124502 51 237 3.0 4.0 0.00 0.00 0.01 98 1012.9
20260508123502 49 279 1.0 3.0 0.00 0.00 0.01 99 1012.9
20260508123003 49 257 2.0 4.0 0.00 0.00 0.01 99 1013.0
20260508122502 49 276 1.0 2.0 0.00 0.00 0.01 99 1012.9
20260508122003 48 265 2.0 3.0 0.00 0.00 0.01 99 1012.8
20260508121502 48 272 1.0 2.0 0.00 0.00 0.01 99 1012.9
20260508121002 48 272 2.0 5.0 0.00 0.00 0.01 99 1012.7
20260508120502 48 193 3.0 5.0 0.00 0.00 0.01 99 1013.2
20260508120002 48 252 2.0 4.0 0.00 0.00 0.01 99 1013.1
20260508115502 48 254 3.0 3.0 0.00 0.00 0.01 99 1012.9
20260508115003 48 223 3.0 4.0 0.00 0.00 0.01 99 1012.8
20260508114501 48 211 2.0 3.0 0.00 0.00 0.01 99 1013.1